World > North America > United States > Iowa > Gilmore City  

Gilmore City, IA Hourly Weather Updates

Feedback E-mail the Weather

Quick WX

Gilmore City, IA Weather Maps

°F °C°F °C
Gilmore City Weather Map
UTC Time: 3/5/2024, 09:36
Your Time:

Gilmore City, IA Regional Weather

Expires:202403051000;;433885
ASUS43 KDMX 050906
RWRIA 

WEATHER ROUNDUP FOR IOWA
NATIONAL WEATHER SERVICE DES MOINES IA
300 AM CST TUE MAR 05 2024

NOTE: "FAIR" INDICATES FEW OR NO CLOUDS BELOW 12,000 FEET WITH NO
SIGNIFICANT WEATHER AND/OR OBSTRUCTIONS TO VISIBILITY.

* - THESE STATIONS ARE NOT NWS STATIONS...THUS NOT UNDER NWS
QUALITY CONTROL.  THEY ALSO DO NOT REPORT WEATHER SUCH 
AS PRECIPITATION OR FOG.  


IAZ004>006-015-016-023>025-035-036-051000-
   NORTH CENTRAL IOWA
  
CITY           SKY/WX    TMP DP  RH WIND       PRES   REMARKS
ALGONA *       CLEAR     21  14  73 N9        30.02S WCI  11 TC  -6   
CLARION *      CLEAR     19  21 100 NE8       30.01F WCI   9 TC  -7   
ESTHERVILLE    CLEAR     18  10  71 N8        30.05F WCI   8 TC  -8   
FORT DODGE *   PTCLDY    26  17  68 N8        30.02F WCI  18 TC  -3   
MASON CITY     CLEAR     23  16  74 N12       30.03F WCI  12 TC  -5   
FOREST CITY *  PTCLDY    25  18  74 N6        30.03F WCI  18 TC  -4   
WEBSTER CITY * PTCLDY    27  18  69 NE7G13    30.01S WCI  19 TC  -3   
IOWA FALLS *   PTCLDY    31  20  63 N15       30.01F WCI  20 TC  -1   
$$


SKY/WX - Weather  TMP - Temperature  DP - Dew Point  RH - Humidity
WIND - Wind Direction/Speed PRES - Barometric Pressure VSB - Visibility
WCI - Wind Chill Index E13G22 Wind - East Wind 13 mph/Gusts of 22 mph

Trending Headlines

Trending Entertainment Headlines

Gilmore City Radar Loop

Use the map search tool if you want to place a location marker on the radar map...

Gilmore City Quick Facts

National Two Day Weather Forecast


E-mail the Gilmore City Weather Forecast

Voice your opinion or tell us about page issues...